Weather History for Ypsilanti, MI

Change the Weather History Date:

Tuesday, April 22, 2014

  Actual Average Record
Temperature  
Mean Temperature 54 °F -  
Max Temperature 63 °F 62 °F 87 °F (1980)
Min Temperature 45 °F 41 °F 26 °F (1978)
Degree Days  
Heating Degree Days 11    
Growing Degree Days 4 (Base 50)    
Moisture  
Dew Point 44 °F    
Average Humidity 64    
Maximum Humidity 81    
Minimum Humidity 42    
Precipitation  
Precipitation 0.01 in - - ()
Sea Level Pressure  
Sea Level Pressure 29.76 in    
Wind  
Wind Speed 12 mph (WNW)    
Max Wind Speed 25 mph    
Max Gust Speed 32 mph    
Visibility 8 miles    
Events Rain    
Averages and records for this station are not official NWS values.
T = Trace of Precipitation, MM = Missing Value Source: NWS Daily Summary

Daily Weather History Graph

Daily Weather History Graph

Search for Another Location

Airport:

Trip Planner

Search our weather history database for the weather conditions in past years. The results will help you decide how hot, cold, wet, or windy it might be!

Date:

Astronomy

Apr. 22, 2014 Rise Set
Actual Time 6:42 AM EDT 8:23 PM EDT
Civil Twilight 6:12 AM EDT 8:53 PM EDT
Nautical Twilight 5:36 AM EDT 9:29 PM EDT
Astronomical Twilight 4:58 AM EDT 10:08 PM EDT
Moon 2:38 AM EDT (4/22) 1:16 PM EDT (4/22)
Length of Visible Light 14h 40m
Length of Day
13h 40m
Last Quarter, 46% of the Moon is Illuminated
Apr 22
Last Quarter
Apr 29
New
May 6
First Quarter
May 14
Full
May 21
Last Quarter

Hourly Weather History & Observations

Time (EDT) Temp. Windchill Dew Point Humidity Pressure Visibility Wind Dir Wind Speed Gust Speed Precip Events Conditions
12:53 AM 63.0 °F - 53.1 °F 70% 29.74 in 10.0 mi WSW 9.2 mph - N/A   Scattered Clouds
1:53 AM 62.1 °F - 54.0 °F 75% 29.71 in 10.0 mi SSW 8.1 mph - 0.00 in Rain Light Rain
2:03 AM 62.1 °F - 54.0 °F 75% 29.72 in 10.0 mi SW 8.1 mph - 0.00 in Rain Light Rain
2:53 AM 61.0 °F - 55.0 °F 81% 29.69 in 8.0 mi WSW 9.2 mph - 0.01 in Rain Light Rain
3:39 AM 61.0 °F - 55.0 °F 81% 29.69 in 9.0 mi WSW 8.1 mph - 0.00 in   Overcast
3:53 AM 61.0 °F - 55.0 °F 81% 29.67 in 8.0 mi WSW 9.2 mph - 0.00 in   Overcast
4:36 AM 61.0 °F - 55.0 °F 81% 29.68 in 6.0 mi WSW 8.1 mph - 0.00 in   Haze
4:53 AM 62.1 °F - 55.9 °F 80% 29.66 in 6.0 mi West 8.1 mph - 0.00 in   Haze
5:12 AM 62.1 °F - 55.0 °F 78% 29.68 in 6.0 mi West 9.2 mph - N/A   Haze
5:43 AM 62.1 °F - 55.0 °F 78% 29.67 in 6.0 mi West 8.1 mph - N/A   Haze
6:25 AM 61.0 °F - 54.0 °F 78% 29.68 in 6.0 mi WNW 9.2 mph - N/A   Haze
6:38 AM 61.0 °F - 54.0 °F 78% 29.68 in 5.0 mi WNW 15.0 mph - N/A   Haze
6:53 AM 61.0 °F - 54.0 °F 78% 29.67 in 5.0 mi NW 11.5 mph - N/A   Haze
7:02 AM 61.0 °F - 54.0 °F 78% 29.68 in 4.0 mi NW 15.0 mph - N/A   Haze
7:26 AM 61.0 °F - 53.1 °F 75% 29.70 in 4.0 mi NW 15.0 mph - N/A   Haze
7:53 AM 57.0 °F - 50.0 °F 77% 29.70 in 8.0 mi NNW 17.3 mph 24.2 mph 0.00 in   Overcast
8:53 AM 53.1 °F - 44.1 °F 71% 29.74 in 10.0 mi NNW 15.0 mph - N/A   Overcast
9:17 AM 51.1 °F - 39.9 °F 66% 29.75 in 10.0 mi NW 19.6 mph - N/A   Scattered Clouds
9:53 AM 52.0 °F - 37.9 °F 59% 29.76 in 10.0 mi NW 17.3 mph 31.1 mph N/A   Clear
10:53 AM 55.0 °F - 37.0 °F 51% 29.77 in 10.0 mi NW 17.3 mph - N/A   Clear
11:53 AM 55.9 °F - 36.0 °F 47% 29.78 in 10.0 mi WNW 19.6 mph 27.6 mph N/A   Clear
12:53 PM 57.0 °F - 34.0 °F 42% 29.77 in 10.0 mi WNW 18.4 mph 27.6 mph N/A   Scattered Clouds
1:53 PM 57.0 °F - 34.0 °F 42% 29.77 in 10.0 mi NNW 21.9 mph 28.8 mph N/A   Mostly Cloudy
2:53 PM 55.9 °F - 33.1 °F 42% 29.78 in 10.0 mi WNW 20.7 mph 28.8 mph N/A   Overcast
3:53 PM 55.9 °F - 34.0 °F 44% 29.78 in 10.0 mi NW 15.0 mph 27.6 mph N/A   Overcast
4:53 PM 55.0 °F - 33.1 °F 43% 29.79 in 10.0 mi NW 20.7 mph 28.8 mph N/A   Overcast
5:53 PM 54.0 °F - 33.1 °F 45% 29.82 in 10.0 mi NW 19.6 mph 28.8 mph N/A   Overcast
6:53 PM 50.0 °F - 33.1 °F 52% 29.85 in 10.0 mi NNW 25.3 mph 32.2 mph N/A   Overcast
7:53 PM 48.9 °F - 30.9 °F 50% 29.87 in 10.0 mi NW 21.9 mph 28.8 mph N/A   Overcast
8:53 PM 48.0 °F - 30.0 °F 50% 29.89 in 10.0 mi NW 17.3 mph 25.3 mph N/A   Overcast
9:53 PM 46.0 °F 40.2 °F 30.0 °F 54% 29.93 in 10.0 mi NNW 12.7 mph - N/A   Mostly Cloudy
10:53 PM 45.0 °F 38.5 °F 28.9 °F 53% 29.93 in 10.0 mi NW 13.8 mph 25.3 mph N/A   Clear
11:53 PM 45.0 °F 38.2 °F 28.9 °F 53% 29.94 in 10.0 mi NW 15.0 mph - N/A   Overcast